2024/05/05 00:00:00, 0.0,11.4
2024/05/05 00:10:00, 0.0,11.4
2024/05/05 00:20:00, 0.0,11.3
2024/05/05 00:30:00, 0.0,11.1
2024/05/05 00:40:00, 0.0,10.9
2024/05/05 00:50:00, 0.0,10.8
2024/05/05 01:00:00, 0.0,10.6
2024/05/05 01:10:00, 0.0,10.7
2024/05/05 01:20:00, 0.0,10.5
2024/05/05 01:30:00, 0.0,10.4
2024/05/05 01:40:00, 0.0,10.3
2024/05/05 01:50:00, 0.0,10.4
2024/05/05 02:00:00, 0.0,10.6
2024/05/05 02:10:00, 0.0,10.2
2024/05/05 02:20:00, 0.0,10.3
2024/05/05 02:30:00, 0.0,10.1
2024/05/05 02:40:00, 0.0,10.4
2024/05/05 02:50:00, 0.0,10.4
2024/05/05 03:00:00, 0.0,10.5
2024/05/05 03:10:00, 0.0,10.6
2024/05/05 03:20:00, 0.0,10.6
2024/05/05 03:30:00, 0.0,10.7
2024/05/05 03:40:00, 0.0,10.2
2024/05/05 03:50:00, 0.0,10.1
2024/05/05 04:00:00, 0.0, 9.7
2024/05/05 04:10:00, 0.0, 9.7
2024/05/05 04:20:00, 0.0, 9.9
2024/05/05 04:30:00, 0.0, 9.4
2024/05/05 04:40:00, 0.0, 9.6
2024/05/05 04:50:00, 0.0, 9.8
2024/05/05 05:00:00, 0.0,10.2
2024/05/05 05:10:00, 0.0,10.8
2024/05/05 05:20:00, 0.0,11.5
2024/05/05 05:30:00, 0.0,11.3
2024/05/05 05:40:00, 0.0,11.0
2024/05/05 05:50:00, 0.0,11.4
2024/05/05 06:00:00, 0.0,11.3
2024/05/05 06:10:00, 0.0,11.3
2024/05/05 06:20:00, 0.0,11.6
2024/05/05 06:30:00, 0.0,13.1
2024/05/05 06:40:00, 0.0,14.1
2024/05/05 06:50:00, 0.0,14.7
2024/05/05 07:00:00, 0.0,15.1
2024/05/05 07:10:00, 0.0,15.9
2024/05/05 07:20:00, 0.0,16.1
2024/05/05 07:30:00, 0.0,16.5
2024/05/05 07:40:00, 0.0,16.9
2024/05/05 07:50:00, 0.0,17.3
2024/05/05 08:00:00, 0.0,18.1
2024/05/05 08:10:00, 0.0,18.8
2024/05/05 08:20:00, 0.0,20.6
2024/05/05 08:30:00, 0.0,22.3
2024/05/05 08:40:00, 0.0,21.5
2024/05/05 08:50:00, 0.0,21.0
2024/05/05 09:00:00, 0.0,21.0
2024/05/05 09:10:00, 0.0,20.6
2024/05/05 09:20:00, 0.0,20.5
2024/05/05 09:30:00, 0.0,20.9
2024/05/05 09:40:00, 0.0,20.6
2024/05/05 09:50:00, 0.0,21.1
2024/05/05 10:00:00, 0.0,21.0
2024/05/05 10:10:00, 0.0,21.2
2024/05/05 10:20:00, 0.0,21.7
2024/05/05 10:30:00, 0.0,21.9
2024/05/05 10:40:00, 0.0,22.3
2024/05/05 10:50:00, 0.0,23.0
2024/05/05 11:00:00, 0.0,23.3
2024/05/05 11:10:00, 0.1,24.0
2024/05/05 11:20:00, 0.1,24.3
2024/05/05 11:30:00, 0.1,24.5
2024/05/05 11:40:00, 0.0,24.8
2024/05/05 11:50:00, 0.0,25.2
2024/05/05 12:00:00, 0.0,25.3
2024/05/05 12:10:00, 0.0,25.0
2024/05/05 12:20:00, 0.0,25.3
2024/05/05 12:30:00, 0.0,25.8
2024/05/05 12:40:00, 0.0,25.3
2024/05/05 12:50:00, 0.0,24.4
2024/05/05 13:00:00, 0.0,24.0
2024/05/05 13:10:00, 0.0,24.8
2024/05/05 13:20:00, 0.0,24.5
2024/05/05 13:30:00, 0.0,24.6
2024/05/05 13:40:00, 0.0,25.2
2024/05/05 13:50:00, 0.0,24.2
2024/05/05 14:00:00, 0.0,24.3
2024/05/05 14:10:00, 0.0,24.1
2024/05/05 14:20:00, 0.0,24.5
2024/05/05 14:30:00, 0.0,24.1
2024/05/05 14:40:00, 0.0,23.9
2024/05/05 14:50:00, 0.0,23.4
2024/05/05 15:00:00, 0.0,23.2
2024/05/05 15:10:00, 0.0,23.4
2024/05/05 15:20:00, 0.0,23.2
2024/05/05 15:30:00, 0.0,23.0
2024/05/05 15:40:00, 0.0,22.8
2024/05/05 15:50:00, 0.0,22.5
2024/05/05 16:00:00, 0.0,22.3
2024/05/05 16:10:00, 0.0,22.2
2024/05/05 16:20:00, 0.0,22.4
2024/05/05 16:30:00, 0.0,22.2
2024/05/05 16:40:00, 0.0,22.0
2024/05/05 16:50:00, 0.0,21.9
2024/05/05 17:00:00, 0.0,21.7
2024/05/05 17:10:00, 0.0,21.7
2024/05/05 17:20:00, 0.0,21.3
2024/05/05 17:30:00, 0.0,20.8
2024/05/05 17:40:00, 0.0,20.8
2024/05/05 17:50:00, 0.0,20.7
2024/05/05 18:00:00, 0.0,20.6
2024/05/05 18:10:00, 0.0,20.3
2024/05/05 18:20:00, 0.0,20.2
2024/05/05 18:30:00, 0.0,20.2
2024/05/05 18:40:00, 0.0,20.0
2024/05/05 18:50:00, 0.0,19.8
2024/05/05 19:00:00, 0.0,19.8
2024/05/05 19:10:00, 0.0,19.8
2024/05/05 19:20:00, 0.0,19.5
2024/05/05 19:30:00, 0.0,19.5
2024/05/05 19:40:00, 0.0,19.3
2024/05/05 19:50:00, 0.0,19.1
2024/05/05 20:00:00, 0.0,18.9
2024/05/05 20:10:00, 0.0,18.7
2024/05/05 20:20:00, 0.0,18.8
2024/05/05 20:30:00, 0.0,18.7
2024/05/05 20:40:00, 0.0,18.6
2024/05/05 20:50:00, 0.0,18.7
2024/05/05 21:00:00, 0.0,18.7
2024/05/05 21:10:00, 0.0,18.8
2024/05/05 21:20:00, 0.0,18.2
2024/05/05 21:30:00, 0.0,18.1
2024/05/05 21:40:00, 0.0,18.0
2024/05/05 21:50:00, 0.0,18.0
2024/05/05 22:00:00, 0.0,17.8
2024/05/05 22:10:00, 0.0,17.4
2024/05/05 22:20:00, 0.0,17.3
2024/05/05 22:30:00, 0.0,17.0
2024/05/05 22:40:00, 0.0,16.8
2024/05/05 22:50:00, 0.0,16.9
2024/05/05 23:00:00, 0.0,17.2
2024/05/05 23:10:00, 0.0,17.3
2024/05/05 23:20:00, 0.0,17.4
2024/05/05 23:30:00, 0.0,17.4
2024/05/05 23:40:00, 0.0,16.8
2024/05/05 23:50:00, 0.0,16.9
